{"data":{"norad_id":63086,"intl_designator":"2025-037K","name":"STARLINK-32914","alt_names":[],"object_type":"PAYLOAD","status":"ACTIVE","operator":null,"country":"US","launch_date":"2025-02-23","launch_site_code":"AFWTR","launch_vehicle":null,"mission":null,"orbit_class":"UNKNOWN","rcs_meters":null,"size_class":null,"mass_kg":null,"dimensions":null,"purposes":["comms"],"wikipedia_slug":null,"has_3d_model":false,"image_url":null,"decayed_at":null,"tle_current":{"epoch":"2026-09-21T21:19:26.877792Z","epoch_age_seconds":42357,"freshness":"FRESH","line1":"1 63086U 25037K   26264.88850553  .00022592  00000+0  76670-3 0  9990","line2":"2 63086  69.9995 217.2524 0002406 254.5496 105.5414 15.30472283 88058","mean_motion":15.30472283,"eccentricity":0.0002406,"inclination_deg":69.9995,"raan_deg":217.2524,"arg_perigee_deg":254.5496,"mean_anomaly_deg":105.5414,"bstar":0.0007667,"rev_number":8805,"period_min":94.088603628766,"perigee_km":472.75348106181,"apogee_km":476.05092292581,"semimajor_km":6852.5392019938,"source":"CELESTRAK","updated_at":"2026-09-22T09:00:49.759110Z"}}}